[[[{"header":{"parameterUnit":"kt","parameterCategory":2,"dx":1,"dy":1,"la1":30.253999710083008,"la2":30.299108505249023,"lo1":-89.0895004272461,"lo2":-89.04439544677734,"nx":28,"ny":28,"refTime":"2022-09-21T09:00:00:Z","depth":0,"parameterNumber":1,"parameterNumberName":"U-component_of_WINDS"},"data":[3.3526,3.3571,3.3559,3.3605,3.3603,3.3632,3.3639,3.3647,3.365,3.3684,3.3702,3.3696,3.3695,3.3714,3.3733,3.373,3.3738,3.3761,3.3753,3.3658,3.3644,3.3631,3.3618,3.3764,3.3764,3.3852,3.3853,3.3853,3.3453,3.3451,3.3473,3.3486,3.3504,3.3474,3.3482,3.3499,3.3527,3.3532,3.355,3.3579,3.3602,3.3593,3.3613,3.3634,3.362,3.364,3.3637,3.3637,3.3535,3.3522,3.365,3.365,3.3649,3.3649,3.3649,3.3649,3.3318,3.3346,3.3347,3.3371,3.3375,3.3384,3.3409,3.34,3.3422,3.3441,3.3424,3.3456,3.3459,3.3479,3.3483,3.3507,3.3484,3.3501,3.3505,3.3509,3.3515,3.3384,3.351,3.351,3.351,3.3509,3.3509,0,3.3215,3.3203,3.3224,3.3241,3.3258,3.327,3.328,3.3295,3.3268,3.3288,3.3315,3.3328,3.3356,3.338,3.3397,3.3397,3.3368,3.3365,3.3377,3.3383,3.3387,3.3383,3.3216,3.3361,3.336,3.3359,3.3359,3.3358,3.3076,3.3111,3.3108,3.3124,3.3126,3.3153,3.3167,3.3141,3.3156,3.3165,3.3192,3.3216,3.3234,3.328,3.3271,3.3292,3.3278,3.3334,3.3281,3.3286,3.3275,3.3273,3.3275,3.3344,3.3346,3.3347,3.3349,0,3.2998,3.2979,3.3031,3.3025,3.3024,3.3063,3.3057,3.3086,3.3075,3.3112,3.3119,3.3103,3.313,3.3112,3.3141,3.313,3.3192,3.3179,3.3189,3.3185,3.3231,3.3226,3.3391,3.341,3.3262,3.3263,3.3265,0,3.2871,3.2919,3.2889,3.292,3.2972,3.2944,3.2997,3.2993,3.2996,3.3025,3.2989,3.3017,3.299,3.3015,3.3,3.3047,3.3054,3.3048,3.3043,3.305,3.305,3.3057,3.3049,3.3033,3.3032,3.3032,3.3031,0,3.2749,3.2791,3.2842,3.2848,3.2847,3.2872,3.2873,3.2876,3.2891,3.2907,3.2915,3.2937,3.2948,3.2965,3.2945,3.2909,3.3004,3.295,3.2997,3.2997,3.3018,3.3016,3.3168,3.303,3.303,3.3029,3.3029,0,3.2643,3.266,3.2737,3.2734,3.2747,3.2781,3.2799,3.2824,3.2831,3.2823,3.2836,3.281,3.2852,3.2799,3.2856,3.2815,3.2828,3.2826,3.2829,3.283,3.2772,3.2857,3.3006,3.3019,3.2833,3.2831,3.283,0,3.2508,3.2582,3.2558,3.2633,3.2664,3.262,3.2658,3.2665,3.2658,3.2683,3.2675,3.2705,3.2663,3.267,3.27,3.2693,3.2747,3.2686,3.2721,3.2723,3.2718,3.2855,3.288,3.2975,3.2809,3.2811,3.2813,0,3.24,3.2399,3.2415,3.242,3.2426,3.2453,3.2497,3.252,3.2538,3.2552,3.2587,3.263,3.2598,3.2611,3.2592,3.2625,3.271,3.2588,3.2587,3.2608,3.2798,3.2821,3.2837,3.269,3.2693,3.2695,3.2796,0,3.224,3.2276,3.2317,3.2333,3.2351,3.2398,3.2378,3.24,3.2379,3.237,3.2423,3.2426,3.2451,3.2466,3.2447,3.2529,3.2512,3.248,3.2426,3.2517,3.255,3.2563,3.2379,3.2377,3.2376,3.2375,0,0,3.2114,3.2165,3.2138,3.218,3.2193,3.2148,3.2199,3.2207,3.2226,3.2235,3.2206,3.2267,3.2271,3.2338,3.2365,3.2376,3.2388,3.2358,3.2475,3.2486,3.2496,3.2531,3.2546,3.2372,3.2372,3.2371,3.2371,0,3.2051,3.2056,3.2108,3.2114,3.2124,3.2112,3.2125,3.2126,3.2123,3.2176,3.2138,3.2167,3.2219,3.2227,3.2238,3.2349,3.2319,3.2359,3.2424,3.2461,3.2474,3.2486,3.2523,3.2537,3.2367,3.2368,3.2368,0,3.194,3.194,3.1964,3.1993,3.1999,3.2034,3.1973,3.2014,3.2039,3.1988,3.2041,3.204,3.2051,3.2117,3.2147,3.2121,3.2256,3.2211,3.222,3.2222,3.2257,3.2273,3.2287,3.2102,3.2101,3.21,0,0,3.1888,3.1922,3.1915,3.1978,3.1985,3.1969,3.1986,3.1967,3.1977,3.1982,3.198,3.1991,3.202,3.204,3.2067,3.2143,3.2142,3.2179,3.2192,3.2202,3.221,3.2248,3.2264,3.2097,3.2097,3.2096,0,0,3.1863,3.1857,3.1835,3.1906,3.1917,3.1915,3.1954,3.1927,3.1949,3.1941,3.1912,3.1914,3.1976,3.1978,3.1936,3.2047,3.1995,3.2005,3.2044,3.2059,3.2072,3.2069,3.1875,0,0,0,0,0,3.1789,3.1858,3.1837,3.1846,3.1885,3.1926,3.1931,3.1908,3.1871,3.1902,3.1896,3.1863,3.1949,3.1912,3.1921,3.1967,3.2055,3.2062,3.2069,3.2137,3.2154,3.2168,0,0,0,0,0,0,3.1792,3.1803,3.1835,3.1837,3.1845,3.1923,3.1855,3.1851,3.1867,3.1859,3.1865,3.1863,3.1845,3.1905,3.1914,3.1958,3.1871,3.2058,3.2064,3.207,3.2143,3.2157,3.2168,0,0,0,0,0,3.1794,3.1803,3.1871,3.1835,3.1843,3.1829,3.1852,3.1848,3.186,3.1852,3.1849,3.1842,3.1847,3.1853,3.191,3.1955,3.1865,3.1868,3.2062,3.2067,3.2071,3.215,0,0,0,0,0,0,3.1796,3.18,3.1872,3.1873,3.1808,3.1824,3.1826,3.1846,3.1851,3.1849,3.1826,3.182,3.1849,3.1853,3.1858,3.1955,3.186,3.1863,3.1865,3.2066,3.207,3.2073,0,0,0,0,0,0,3.1795,3.1802,3.1873,3.1839,3.1836,3.182,3.1821,3.1867,3.1852,3.1825,3.182,3.1824,3.1842,3.1854,3.1858,3.1931,3.1856,3.1859,3.1861,3.1863,3.2069,3.2072,0,0,0,0,0,0,3.1797,3.1803,3.1838,3.1836,3.1834,3.1847,3.186,3.1901,3.1822,3.1825,3.1815,3.1811,3.1844,3.1847,3.1858,3.1929,3.193,3.1856,3.1858,3.186,3.1861,0,0,0,0,0,0,0,3.1799,3.1767,3.1864,3.1834,3.1832,3.1886,3.1886,3.1887,3.1821,3.1818,3.1815,3.1812,3.1837,3.184,3.1844,3.1928,0,0,3.1856,3.1857,0,0,0,0,0,0,0,0,3.1764,3.1766,3.1864,3.1864,3.1865,3.1886,3.1886,3.1887,3.1821,3.1818,3.1816,3.1814,3.1838,3.1841,3.1844,0,0,0,0,0,0,0,0,0,0,0,0,0,0,0,3.1864,3.1864,0,3.1886,3.1886,3.1887,3.1821,3.1819,3.1816,3.1815,3.1838,3.1841,3.1843,0,0,0,0,0,0,0,0,0,0,0,0,0,0,0,0,0,0,0,0,0,0,0,0,0,0,0,0,0,0,0,0,0,0,0,0,0,0,0,0,0,0,0,0,0,0,0,0,0,0,0,0,0,0,0,0,0,0,0,0,0,0,0,0,0,0,0,0,0]}],[{"header":{"parameterUnit":"kt","parameterCategory":2,"dx":1,"dy":1,"la1":30.253999710083008,"la2":30.299108505249023,"lo1":-89.0895004272461,"lo2":-89.04439544677734,"nx":28,"ny":28,"refTime":"2022-09-21T09:00:00:Z","depth":0,"parameterNumber":2,"parameterNumberName":"V-component_of_WINDS"},"data":[-0.6291,-0.6299,-0.6313,-0.6328,-0.6343,-0.6356,-0.6365,-0.6378,-0.6392,-0.6408,-0.642,-0.6434,-0.6453,-0.647,-0.6483,-0.6489,-0.6494,-0.6487,-0.6495,-0.6514,-0.6518,-0.6521,-0.652,-0.6488,-0.6488,-0.6473,-0.6473,-0.6473,-0.6304,-0.632,-0.6332,-0.6353,-0.6364,-0.6379,-0.6397,-0.6404,-0.6415,-0.6432,-0.6444,-0.6459,-0.6473,-0.6494,-0.651,-0.6513,-0.6521,-0.6516,-0.6517,-0.6519,-0.654,-0.6539,-0.651,-0.651,-0.651,-0.651,-0.651,-0.651,-0.6333,-0.6337,-0.6358,-0.6372,-0.6386,-0.64,-0.6406,-0.6424,-0.6436,-0.6454,-0.6467,-0.648,-0.6499,-0.6523,-0.6535,-0.6544,-0.6552,-0.6551,-0.6551,-0.655,-0.6548,-0.6567,-0.6547,-0.6548,-0.6548,-0.6548,-0.6548,0,-0.6358,-0.637,-0.6382,-0.6399,-0.641,-0.6424,-0.6439,-0.6443,-0.6471,-0.6479,-0.6493,-0.6502,-0.6521,-0.6535,-0.6552,-0.6564,-0.658,-0.6583,-0.6583,-0.6576,-0.6569,-0.6573,-0.6607,-0.6584,-0.6584,-0.6584,-0.6584,-0.6584,-0.6388,-0.6391,-0.642,-0.6427,-0.6439,-0.6449,-0.6458,-0.6483,-0.6492,-0.6513,-0.6515,-0.6529,-0.6542,-0.656,-0.658,-0.6594,-0.6602,-0.6591,-0.6604,-0.6598,-0.6602,-0.6602,-0.6602,-0.6588,-0.6588,-0.6587,-0.6587,0,-0.6404,-0.6427,-0.6436,-0.6464,-0.6471,-0.6473,-0.6496,-0.6501,-0.6518,-0.6526,-0.653,-0.6555,-0.6567,-0.6589,-0.6607,-0.6618,-0.6621,-0.6628,-0.6615,-0.6617,-0.661,-0.6611,-0.6584,-0.6582,-0.6616,-0.6615,-0.6615,0,-0.6439,-0.6442,-0.6476,-0.648,-0.6484,-0.6509,-0.6512,-0.6526,-0.6543,-0.655,-0.6572,-0.6578,-0.6605,-0.6614,-0.663,-0.6637,-0.664,-0.6648,-0.6653,-0.6647,-0.6646,-0.6651,-0.6653,-0.6662,-0.6662,-0.6662,-0.6662,0,-0.6461,-0.6483,-0.6489,-0.6498,-0.6527,-0.653,-0.6542,-0.6561,-0.657,-0.6584,-0.659,-0.6604,-0.6612,-0.6623,-0.6643,-0.6651,-0.6651,-0.6666,-0.666,-0.6659,-0.6659,-0.6658,-0.6629,-0.6662,-0.6662,-0.6662,-0.6662,0,-0.6493,-0.6508,-0.6514,-0.6539,-0.6544,-0.6548,-0.6564,-0.6573,-0.6591,-0.6602,-0.6613,-0.663,-0.6637,-0.6651,-0.666,-0.6665,-0.6671,-0.668,-0.668,-0.6682,-0.6696,-0.6677,-0.6647,-0.6645,-0.6684,-0.6684,-0.6684,0,-0.6513,-0.6525,-0.6547,-0.6552,-0.656,-0.6585,-0.659,-0.6606,-0.6621,-0.663,-0.6646,-0.6656,-0.667,-0.6676,-0.6678,-0.6695,-0.6689,-0.6696,-0.6709,-0.6709,-0.6703,-0.6676,-0.6666,-0.6651,-0.6687,-0.6687,-0.6687,0,-0.6531,-0.6568,-0.6567,-0.6578,-0.6603,-0.661,-0.6615,-0.6631,-0.6636,-0.6651,-0.6656,-0.667,-0.6682,-0.6691,-0.6706,-0.6707,-0.6694,-0.672,-0.672,-0.6714,-0.669,-0.6681,-0.6678,-0.6704,-0.6704,-0.6703,-0.6689,0,-0.6574,-0.6583,-0.6582,-0.6605,-0.6614,-0.6618,-0.6642,-0.6648,-0.6662,-0.6678,-0.6685,-0.6703,-0.6718,-0.6721,-0.6734,-0.6729,-0.6734,-0.6746,-0.676,-0.6742,-0.6737,-0.6736,-0.6765,-0.6765,-0.6766,-0.6766,0,0,-0.6588,-0.6601,-0.6624,-0.6631,-0.664,-0.6666,-0.6668,-0.668,-0.6702,-0.6708,-0.6716,-0.6738,-0.6752,-0.6758,-0.6755,-0.676,-0.6762,-0.6767,-0.675,-0.6748,-0.6747,-0.6742,-0.674,-0.6767,-0.6767,-0.6767,-0.6767,0,-0.6609,-0.6623,-0.6626,-0.6639,-0.666,-0.6676,-0.6677,-0.6701,-0.6711,-0.6719,-0.6739,-0.6746,-0.6763,-0.6775,-0.6783,-0.6767,-0.6781,-0.6769,-0.6753,-0.6754,-0.6752,-0.675,-0.6744,-0.6742,-0.6769,-0.6768,-0.6768,0,-0.6631,-0.665,-0.6653,-0.6675,-0.6689,-0.6697,-0.6718,-0.6725,-0.6731,-0.6758,-0.6765,-0.6778,-0.6796,-0.6798,-0.68,-0.6808,-0.6798,-0.6805,-0.6803,-0.6804,-0.6806,-0.6803,-0.68,-0.6835,-0.6836,-0.6836,0,0,-0.6646,-0.6654,-0.6682,-0.6681,-0.6689,-0.6713,-0.6719,-0.6734,-0.6751,-0.6757,-0.6774,-0.6788,-0.6799,-0.6804,-0.6815,-0.6815,-0.682,-0.6813,-0.6809,-0.6807,-0.6806,-0.6807,-0.6804,-0.6836,-0.6836,-0.6836,0,0,-0.6653,-0.6685,-0.6697,-0.67,-0.6715,-0.6741,-0.674,-0.6755,-0.6767,-0.6769,-0.6794,-0.6799,-0.6802,-0.6813,-0.6818,-0.682,-0.6834,-0.6834,-0.6813,-0.6809,-0.6806,-0.6803,-0.6842,0,0,0,0,0,-0.6686,-0.6681,-0.6691,-0.6696,-0.6723,-0.6736,-0.6739,-0.676,-0.677,-0.6769,-0.6785,-0.68,-0.6821,-0.6826,-0.6829,-0.6824,-0.6843,-0.6842,-0.6841,-0.6814,-0.681,-0.6807,0,0,0,0,0,0,-0.6688,-0.6693,-0.6692,-0.6718,-0.6724,-0.6736,-0.6757,-0.6763,-0.6771,-0.6773,-0.6797,-0.6801,-0.6819,-0.6826,-0.6828,-0.6823,-0.6841,-0.6843,-0.6842,-0.6841,-0.6813,-0.6809,-0.6806,0,0,0,0,0,-0.669,-0.6694,-0.6732,-0.6718,-0.6723,-0.675,-0.6757,-0.6762,-0.6769,-0.6794,-0.6799,-0.6784,-0.6818,-0.6821,-0.6827,-0.6821,-0.6839,-0.684,-0.6842,-0.6841,-0.684,-0.6811,0,0,0,0,0,0,-0.6691,-0.6698,-0.6734,-0.6736,-0.6721,-0.675,-0.6755,-0.6762,-0.6789,-0.6794,-0.6782,-0.6784,-0.6817,-0.682,-0.6823,-0.6819,-0.6838,-0.6839,-0.6839,-0.6841,-0.6841,-0.684,0,0,0,0,0,0,-0.6696,-0.67,-0.6735,-0.6738,-0.6741,-0.6749,-0.6754,-0.6761,-0.6789,-0.6776,-0.6779,-0.6783,-0.6813,-0.6819,-0.6821,-0.6832,-0.6837,-0.6838,-0.6838,-0.6839,-0.6841,-0.684,0,0,0,0,0,0,-0.6698,-0.6701,-0.6738,-0.674,-0.6743,-0.6772,-0.6756,-0.6783,-0.6793,-0.6774,-0.6794,-0.6795,-0.6811,-0.6814,-0.682,-0.683,-0.6832,-0.6837,-0.6837,-0.6838,-0.6838,0,0,0,0,0,0,0,-0.67,-0.6672,-0.6719,-0.6742,-0.6744,-0.6759,-0.6759,-0.676,-0.6793,-0.6794,-0.6794,-0.6795,-0.6832,-0.6833,-0.6834,-0.6828,0,0,-0.6837,-0.6837,0,0,0,0,0,0,0,0,-0.6671,-0.6672,-0.6719,-0.672,-0.672,-0.6759,-0.6759,-0.676,-0.6793,-0.6794,-0.6794,-0.6795,-0.6832,-0.6833,-0.6834,0,0,0,0,0,0,0,0,0,0,0,0,0,0,0,-0.6719,-0.672,0,-0.6759,-0.6759,-0.676,-0.6793,-0.6794,-0.6794,-0.6794,-0.6832,-0.6833,-0.6834,0,0,0,0,0,0,0,0,0,0,0,0,0,0,0,0,0,0,0,0,0,0,0,0,0,0,0,0,0,0,0,0,0,0,0,0,0,0,0,0,0,0,0,0,0,0,0,0,0,0,0,0,0,0,0,0,0,0,0,0,0,0,0,0,0,0,0,0,0]}]]]